| time (UTC) | temp C | wind direction | speed KPH | gust KPH | rain 1hr cm | rain 24hr cm | rain mn cm | humidity % | barometer mb |
| 20260906065741 | 15 | 212 | 1.6 | 6.4 | 0.00 | 0.03 | 0.00 | 74 | 1022.2 |
| 20260906065240 | 15 | 212 | 1.6 | 6.4 | 0.00 | 0.05 | 0.00 | 74 | 1022.3 |
| 20260906064740 | 15 | 212 | 0.0 | 6.4 | 0.00 | 0.10 | 0.00 | 75 | 1022.2 |
| 20260906064237 | 15 | 214 | 0.0 | 4.8 | 0.00 | 0.15 | 0.00 | 75 | 1022.1 |
| 20260906063743 | 15 | 214 | 1.6 | 4.8 | 0.00 | 0.15 | 0.00 | 74 | 1022.1 |
| 20260906063737 | 15 | 214 | 1.6 | 4.8 | 0.00 | 0.15 | 0.00 | 75 | 1022.2 |
| 20260906063405 | 15 | 216 | 1.6 | 4.8 | 0.00 | 0.15 | 0.00 | 74 | 1022.1 |
| 20260906062237 | 15 | 216 | 1.6 | 4.8 | 0.00 | 0.15 | 0.00 | 74 | 1022.1 |
| 20260906061740 | 15 | 216 | 1.6 | 4.8 | 0.00 | 0.15 | 0.00 | 74 | 1022.1 |
| 20260906061239 | 15 | 218 | 1.6 | 4.8 | 0.00 | 0.15 | 0.00 | 74 | 1022.1 |
| 20260906060738 | 15 | 218 | 1.6 | 4.8 | 0.00 | 0.15 | 0.00 | 74 | 1022.0 |
| 20260906060238 | 15 | 220 | 1.6 | 6.4 | 0.00 | 0.15 | 0.00 | 75 | 1022.1 |
| 20260906055738 | 15 | 222 | 1.6 | 6.4 | 0.00 | 0.15 | 0.00 | 75 | 1022.1 |
| 20260906055235 | 15 | 205 | 1.6 | 6.4 | 0.00 | 0.15 | 0.00 | 75 | 1022.1 |
| 20260906054736 | 15 | 206 | 0.0 | 3.2 | 0.00 | 0.15 | 0.00 | 76 | 1022.0 |
| 20260906054234 | 15 | 206 | 1.6 | 4.8 | 0.00 | 0.15 | 0.00 | 77 | 1022.1 |
| 20260906053740 | 15 | 206 | 1.6 | 6.4 | 0.00 | 0.15 | 0.00 | 76 | 1022.0 |
| 20260906053736 | 15 | 206 | 1.6 | 4.8 | 0.00 | 0.15 | 0.00 | 76 | 1022.0 |
| 20260906052735 | 15 | 206 | 1.6 | 6.4 | 0.00 | 0.15 | 0.00 | 76 | 1022.0 |
| 20260906052236 | 15 | 206 | 1.6 | 6.4 | 0.00 | 0.15 | 0.00 | 76 | 1022.0 |
| 20260906051736 | 15 | 206 | 1.6 | 6.4 | 0.00 | 0.15 | 0.00 | 76 | 1022.0 |
| 20260906051236 | 15 | 206 | 1.6 | 6.4 | 0.00 | 0.15 | 0.00 | 75 | 1022.0 |
| 20260906050734 | 15 | 210 | 1.6 | 6.4 | 0.00 | 0.15 | 0.00 | 75 | 1022.0 |
| 20260906050233 | 15 | 208 | 1.6 | 6.4 | 0.00 | 0.15 | 0.00 | 75 | 1022.0 |
| 20260906045738 | 15 | 180 | 3.2 | 8.0 | 0.00 | 0.15 | 0.00 | 74 | 1021.8 |
| 20260906045732 | 15 | 180 | 1.6 | 8.0 | 0.00 | 0.15 | 0.00 | 75 | 1021.9 |
| 20260906044733 | 15 | 185 | 3.2 | 11.3 | 0.00 | 0.15 | 0.00 | 74 | 1021.7 |
| 20260906044234 | 15 | 185 | 1.6 | 11.3 | 0.00 | 0.15 | 0.00 | 74 | 1021.8 |
| 20260906043735 | 16 | 206 | 1.6 | 6.4 | 0.00 | 0.15 | 0.00 | 75 | 1021.8 |
| 20260906043234 | 15 | 206 | 1.6 | 6.4 | 0.00 | 0.15 | 0.00 | 75 | 1021.8 |
| 20260906042750 | 15 | 206 | 3.2 | 8.0 | 0.00 | 0.15 | 0.00 | 76 | 1021.8 |
| 20260906042233 | 15 | 208 | 4.8 | 8.0 | 0.00 | 0.15 | 0.00 | 74 | 1021.8 |
| 20260906041733 | 16 | 214 | 3.2 | 8.0 | 0.00 | 0.15 | 0.00 | 73 | 1021.8 |
| 20260906041233 | 16 | 235 | 1.6 | 6.4 | 0.00 | 0.15 | 0.00 | 74 | 1021.7 |
| 20260906040733 | 16 | 236 | 1.6 | 6.4 | 0.00 | 0.15 | 0.00 | 74 | 1021.6 |
| 20260906040231 | 16 | 242 | 3.2 | 6.4 | 0.00 | 0.15 | 0.00 | 73 | 1021.6 |
| 20260906035732 | 16 | 244 | 3.2 | 8.0 | 0.00 | 0.15 | 0.00 | 73 | 1021.5 |
| 20260906035230 | 16 | 249 | 1.6 | 8.0 | 0.00 | 0.15 | 0.00 | 74 | 1021.5 |
| 20260906034728 | 16 | 254 | 1.6 | 11.3 | 0.00 | 0.15 | 0.00 | 75 | 1021.5 |
| 20260906034228 | 15 | 256 | 1.6 | 11.3 | 0.00 | 0.15 | 0.00 | 75 | 1021.6 |
| 20260906033728 | 16 | 257 | 3.2 | 8.0 | 0.00 | 0.15 | 0.00 | 75 | 1021.6 |
| 20260906033229 | 16 | 259 | 3.2 | 11.3 | 0.00 | 0.15 | 0.00 | 74 | 1021.7 |
| 20260906032726 | 16 | 208 | 3.2 | 11.3 | 0.00 | 0.15 | 0.00 | 75 | 1021.7 |
| 20260906032226 | 16 | 202 | 3.2 | 11.3 | 0.00 | 0.15 | 0.00 | 76 | 1021.7 |
| 20260906031727 | 15 | 197 | 3.2 | 11.3 | 0.00 | 0.15 | 0.00 | 76 | 1021.7 |
| 20260906031224 | 15 | 209 | 3.2 | 8.0 | 0.00 | 0.15 | 0.00 | 78 | 1021.8 |
| 20260906030726 | 15 | 210 | 3.2 | 9.7 | 0.00 | 0.15 | 0.00 | 78 | 1021.8 |
| 20260906030226 | 15 | 224 | 3.2 | 9.7 | 0.00 | 0.15 | 0.00 | 78 | 1021.9 |
| 20260906025726 | 15 | 241 | 1.6 | 8.0 | 0.00 | 0.15 | 0.00 | 78 | 1021.8 |
| 20260906025228 | 16 | 206 | 3.2 | 14.5 | 0.00 | 0.15 | 0.00 | 77 | 1021.9 |
| 20260906025222 | 15 | 241 | 3.2 | 8.0 | 0.00 | 0.15 | 0.00 | 77 | 1021.8 |
| 20260906024222 | 16 | 208 | 3.2 | 14.5 | 0.00 | 0.15 | 0.00 | 77 | 1022.0 |
| 20260906023725 | 16 | 204 | 3.2 | 11.3 | 0.00 | 0.15 | 0.00 | 77 | 1022.0 |
| 20260906023228 | 16 | 235 | 1.6 | 8.0 | 0.00 | 0.15 | 0.00 | 77 | 1022.1 |
| 20260906023222 | 16 | 233 | 1.6 | 8.0 | 0.00 | 0.15 | 0.00 | 78 | 1022.1 |
| 20260906022848 | 15 | 233 | 3.2 | 9.7 | 0.00 | 0.15 | 0.00 | 76 | 1022.3 |
| 20260906022224 | 15 | 231 | 1.6 | 9.7 | 0.00 | 0.15 | 0.00 | 78 | 1022.2 |
| 20260906021224 | 15 | 234 | 3.2 | 11.3 | 0.00 | 0.15 | 0.00 | 77 | 1022.3 |
| 20260906020723 | 15 | 238 | 3.2 | 11.3 | 0.00 | 0.15 | 0.00 | 78 | 1022.3 |
| 20260906020222 | 15 | 238 | 3.2 | 8.0 | 0.00 | 0.15 | 0.00 | 79 | 1022.3 |
| 20260906015722 | 15 | 195 | 3.2 | 9.7 | 0.00 | 0.15 | 0.00 | 78 | 1022.3 |
| 20260906015223 | 15 | 209 | 3.2 | 11.3 | 0.00 | 0.15 | 0.00 | 78 | 1022.3 |
| 20260906014730 | 16 | 216 | 1.6 | 9.7 | 0.00 | 0.15 | 0.00 | 78 | 1022.4 |
| 20260906014724 | 16 | 242 | 3.2 | 11.3 | 0.00 | 0.15 | 0.00 | 78 | 1022.3 |
| 20260906013723 | 16 | 249 | 1.6 | 8.0 | 0.00 | 0.15 | 0.00 | 79 | 1022.3 |
| 20260906013222 | 16 | 229 | 1.6 | 9.7 | 0.00 | 0.15 | 0.00 | 79 | 1022.3 |
| 20260906012724 | 16 | 231 | 3.2 | 12.9 | 0.00 | 0.15 | 0.00 | 80 | 1022.4 |
| 20260906012225 | 15 | 254 | 3.2 | 12.9 | 0.00 | 0.15 | 0.00 | 79 | 1022.4 |
| 20260906011724 | 15 | 283 | 1.6 | 11.3 | 0.00 | 0.15 | 0.00 | 80 | 1022.3 |
| 20260906011220 | 15 | 285 | 3.2 | 11.3 | 0.00 | 0.15 | 0.00 | 80 | 1022.3 |
| 20260906010720 | 15 | 239 | 3.2 | 9.7 | 0.00 | 0.15 | 0.00 | 81 | 1022.3 |
| 20260906010220 | 15 | 262 | 3.2 | 11.3 | 0.00 | 0.15 | 0.00 | 81 | 1022.2 |
| 20260906005721 | 15 | 281 | 3.2 | 11.3 | 0.00 | 0.15 | 0.00 | 80 | 1022.3 |
| 20260906005220 | 15 | 251 | 3.2 | 11.3 | 0.00 | 0.15 | 0.00 | 80 | 1022.3 |
| 20260906004727 | 15 | 239 | 1.6 | 8.0 | 0.00 | 0.15 | 0.00 | 81 | 1022.3 |
| 20260906004720 | 15 | 267 | 1.6 | 9.7 | 0.00 | 0.15 | 0.00 | 79 | 1022.3 |
| 20260906003721 | 15 | 266 | 1.6 | 6.4 | 0.00 | 0.15 | 0.00 | 81 | 1022.2 |
| 20260906003223 | 15 | 270 | 1.6 | 6.4 | 0.00 | 0.15 | 0.00 | 82 | 1022.2 |
| 20260906002721 | 15 | 281 | 1.6 | 9.7 | 0.00 | 0.15 | 0.00 | 82 | 1022.1 |
| 20260906002220 | 15 | 275 | 1.6 | 9.7 | 0.00 | 0.15 | 0.00 | 82 | 1022.1 |
| 20260906001720 | 14 | 213 | 1.6 | 9.7 | 0.00 | 0.15 | 0.00 | 83 | 1022.1 |
| 20260906001220 | 14 | 266 | 3.2 | 9.7 | 0.00 | 0.15 | 0.00 | 83 | 1022.0 |
| 20260906000720 | 14 | 262 | 1.6 | 12.9 | 0.00 | 0.15 | 0.00 | 84 | 1021.9 |
| 20260906000226 | 14 | 253 | 1.6 | 12.9 | 0.00 | 0.15 | 0.00 | 84 | 1021.8 |
| 20260905235726 | 14 | 268 | 1.6 | 9.7 | 0.00 | 0.15 | 0.00 | 84 | 1021.8 |
| 20260905235720 | 14 | 255 | 1.6 | 9.7 | 0.00 | 0.15 | 0.00 | 84 | 1021.9 |
| 20260905234721 | 14 | 235 | 1.6 | 8.0 | 0.00 | 0.15 | 0.00 | 85 | 1021.8 |
| 20260905234217 | 13 | 281 | 0.0 | 6.4 | 0.00 | 0.15 | 0.00 | 85 | 1021.8 |
| 20260905233722 | 13 | 208 | 0.0 | 14.5 | 0.00 | 0.15 | 0.00 | 85 | 1021.6 |
| 20260905233717 | 13 | 222 | 0.0 | 14.5 | 0.00 | 0.15 | 0.00 | 85 | 1021.7 |
| 20260905232717 | 13 | 242 | 1.6 | 11.3 | 0.00 | 0.15 | 0.00 | 86 | 1021.6 |
| 20260905232222 | 13 | 250 | 0.0 | 8.0 | 0.00 | 0.15 | 0.00 | 86 | 1021.5 |
| 20260905232216 | 13 | 242 | 1.6 | 11.3 | 0.00 | 0.15 | 0.00 | 86 | 1021.6 |
| 20260905231215 | 13 | 235 | 1.6 | 9.7 | 0.00 | 0.15 | 0.00 | 86 | 1021.4 |
| 20260905230714 | 13 | 266 | 1.6 | 9.7 | 0.00 | 0.15 | 0.00 | 86 | 1021.3 |
| 20260905230221 | 13 | 262 | 1.6 | 20.9 | 0.00 | 0.15 | 0.00 | 86 | 1021.1 |
| 20260905230216 | 13 | 310 | 0.0 | 6.4 | 0.00 | 0.15 | 0.00 | 86 | 1021.3 |
| 20260905225840 | 13 | 239 | 1.6 | 20.9 | 0.00 | 0.15 | 0.00 | 87 | 1021.0 |
| 20260905224716 | 13 | 299 | 1.6 | 12.9 | 0.00 | 0.15 | 0.00 | 86 | 1021.0 |
| 20260905224214 | 13 | 258 | 0.0 | 11.3 | 0.00 | 0.15 | 0.00 | 86 | 1021.0 |
| 20260905223715 | 13 | 260 | 0.0 | 4.8 | 0.00 | 0.15 | 0.00 | 87 | 1020.9 |
| 20260905223219 | 13 | 257 | 1.6 | 8.0 | 0.00 | 0.15 | 0.00 | 87 | 1020.8 |
| 20260905223215 | 13 | 256 | 1.6 | 6.4 | 0.00 | 0.15 | 0.00 | 87 | 1020.8 |
| 20260905222215 | 13 | 264 | 1.6 | 8.0 | 0.00 | 0.15 | 0.00 | 87 | 1020.5 |
| 20260905221711 | 12 | 229 | 1.6 | 6.4 | 0.00 | 0.15 | 0.00 | 87 | 1020.4 |
| 20260905221212 | 12 | 260 | 0.0 | 6.4 | 0.00 | 0.15 | 0.00 | 87 | 1020.4 |
| 20260905220711 | 12 | 260 | 0.0 | 6.4 | 0.00 | 0.15 | 0.00 | 87 | 1020.4 |
| 20260905220211 | 12 | 156 | 0.0 | 4.8 | 0.00 | 0.15 | 0.00 | 87 | 1020.4 |
| 20260905215711 | 12 | 270 | 0.0 | 4.8 | 0.00 | 0.15 | 0.00 | 87 | 1020.3 |
| 20260905215212 | 12 | 272 | 0.0 | 4.8 | 0.00 | 0.15 | 0.00 | 87 | 1020.3 |
| 20260905214718 | 12 | 270 | 0.0 | 6.4 | 0.00 | 0.15 | 0.00 | 87 | 1020.2 |
| 20260905214713 | 12 | 272 | 0.0 | 6.4 | 0.00 | 0.15 | 0.00 | 87 | 1020.3 |
| 20260905214340 | 12 | 224 | 0.0 | 14.5 | 0.00 | 0.15 | 0.00 | 87 | 1020.2 |
| 20260905213213 | 12 | 104 | 1.6 | 14.5 | 0.00 | 0.18 | 0.00 | 87 | 1020.2 |
| 20260905212716 | 12 | 241 | 0.0 | 6.4 | 0.00 | 0.18 | 0.00 | 87 | 1019.9 |
| 20260905212710 | 12 | 189 | 0.0 | 9.7 | 0.00 | 0.18 | 0.00 | 87 | 1020.1 |
| 20260905212336 | 12 | 239 | 0.0 | 14.5 | 0.00 | 0.18 | 0.00 | 87 | 1019.8 |
| 20260905211210 | 12 | 239 | 0.0 | 14.5 | 0.00 | 0.18 | 0.00 | 87 | 1019.8 |
| 20260905210709 | 12 | 254 | 0.0 | 3.2 | 0.00 | 0.20 | 0.00 | 87 | 1019.8 |
| 20260905210211 | 12 | 254 | 0.0 | 8.0 | 0.00 | 0.20 | 0.00 | 87 | 1019.7 |
| 20260905205710 | 12 | 258 | 1.6 | 11.3 | 0.00 | 0.20 | 0.00 | 87 | 1019.6 |
| 20260905205211 | 12 | 358 | 1.6 | 11.3 | 0.00 | 0.23 | 0.00 | 87 | 1019.5 |
| 20260905204710 | 12 | 276 | 0.0 | 6.4 | 0.00 | 0.23 | 0.00 | 87 | 1019.5 |
| 20260905204212 | 12 | 250 | 0.0 | 6.4 | 0.00 | 0.23 | 0.00 | 87 | 1019.4 |
| 20260905203707 | 12 | 232 | 0.0 | 3.2 | 0.00 | 0.23 | 0.00 | 87 | 1019.2 |
| 20260905203210 | 12 | 237 | 0.0 | 8.0 | 0.00 | 0.23 | 0.00 | 87 | 1019.1 |
| 20260905202708 | 12 | 231 | 0.0 | 8.0 | 0.00 | 0.25 | 0.00 | 87 | 1019.1 |
| 20260905202209 | 12 | 250 | 0.0 | 4.8 | 0.00 | 0.28 | 0.00 | 87 | 1019.0 |
| 20260905201714 | 12 | 245 | 1.6 | 6.4 | 0.00 | 0.28 | 0.00 | 87 | 1018.9 |
| 20260905201709 | 12 | 306 | 0.0 | 4.8 | 0.00 | 0.28 | 0.00 | 87 | 1018.9 |
| 20260905201205 | 12 | 307 | 0.0 | 6.4 | 0.00 | 0.28 | 0.00 | 87 | 1018.9 |
| 20260905200211 | 12 | 306 | 0.0 | 8.0 | 0.00 | 0.28 | 0.00 | 87 | 1018.7 |
| 20260905200209 | 12 | 260 | 1.6 | 8.0 | 0.00 | 0.28 | 0.00 | 87 | 1018.8 |
| 20260905195831 | 12 | 271 | 0.0 | 6.4 | 0.00 | 0.28 | 0.00 | 87 | 1018.5 |
| 20260905194707 | 12 | 262 | 1.6 | 14.5 | 0.00 | 0.28 | 0.00 | 87 | 1018.5 |
| 20260905194205 | 12 | 283 | 1.6 | 14.5 | 0.00 | 0.28 | 0.00 | 87 | 1018.5 |
| 20260905193707 | 12 | 219 | 1.6 | 16.1 | 0.00 | 0.28 | 0.00 | 87 | 1018.5 |
| 20260905193211 | 12 | 264 | 1.6 | 12.9 | 0.00 | 0.28 | 0.00 | 87 | 1018.5 |
| 20260905193206 | 12 | 229 | 1.6 | 16.1 | 0.00 | 0.28 | 0.00 | 87 | 1018.5 |
| 20260905192205 | 12 | 255 | 1.6 | 12.9 | 0.00 | 0.28 | 0.00 | 87 | 1018.3 |
| 20260905191704 | 12 | 236 | 1.6 | 12.9 | 0.00 | 0.28 | 0.00 | 87 | 1018.3 |
| 20260905191203 | 12 | 289 | 1.6 | 14.5 | 0.00 | 0.28 | 0.00 | 86 | 1018.2 |
| 20260905190705 | 12 | 254 | 1.6 | 14.5 | 0.00 | 0.28 | 0.00 | 86 | 1018.1 |
| 20260905190204 | 12 | 237 | 1.6 | 12.9 | 0.00 | 0.28 | 0.00 | 86 | 1018.1 |
| 20260905185703 | 12 | 266 | 1.6 | 14.5 | 0.00 | 0.28 | 0.00 | 86 | 1018.1 |
| 20260905185209 | 12 | 193 | 1.6 | 14.5 | 0.00 | 0.28 | 0.00 | 86 | 1017.9 |
| 20260905185204 | 12 | 258 | 1.6 | 14.5 | 0.00 | 0.28 | 0.00 | 86 | 1018.0 |
| 20260905184203 | 12 | 253 | 1.6 | 14.5 | 0.00 | 0.28 | 0.00 | 86 | 1017.8 |
| 20260905183705 | 12 | 256 | 1.6 | 11.3 | 0.00 | 0.28 | 0.00 | 85 | 1017.7 |
| 20260905183203 | 12 | 268 | 1.6 | 11.3 | 0.00 | 0.30 | 0.00 | 85 | 1017.6 |
| 20260905182709 | 12 | 239 | 1.6 | 16.1 | 0.00 | 0.30 | 0.00 | 85 | 1017.6 |
| 20260905182703 | 12 | 231 | 1.6 | 16.1 | 0.00 | 0.30 | 0.00 | 85 | 1017.7 |
| 20260905181705 | 13 | 214 | 1.6 | 12.9 | 0.00 | 0.33 | 0.00 | 85 | 1017.5 |
| 20260905181203 | 13 | 251 | 1.6 | 11.3 | 0.00 | 0.38 | 0.00 | 85 | 1017.3 |
| 20260905180704 | 13 | 254 | 1.6 | 11.3 | 0.00 | 0.46 | 0.00 | 85 | 1017.3 |
| 20260905180209 | 13 | 261 | 1.6 | 19.3 | 0.00 | 0.46 | 0.00 | 85 | 1017.0 |
| 20260905180203 | 13 | 237 | 1.6 | 19.3 | 0.00 | 0.46 | 0.00 | 85 | 1017.2 |
| 20260905175203 | 13 | 280 | 1.6 | 11.3 | 0.00 | 0.46 | 0.00 | 85 | 1016.8 |
| 20260905174704 | 13 | 248 | 1.6 | 11.3 | 0.00 | 0.46 | 0.00 | 85 | 1016.6 |
| 20260905174204 | 13 | 271 | 1.6 | 12.9 | 0.00 | 0.46 | 0.00 | 85 | 1016.7 |
| 20260905173703 | 13 | 267 | 1.6 | 12.9 | 0.00 | 0.46 | 0.00 | 85 | 1016.6 |
| 20260905173202 | 13 | 224 | 1.6 | 16.1 | 0.00 | 0.46 | 0.00 | 85 | 1016.6 |
| 20260905172700 | 13 | 222 | 1.6 | 16.1 | 0.00 | 0.46 | 0.00 | 85 | 1016.5 |
| 20260905172202 | 13 | 211 | 1.6 | 16.1 | 0.00 | 0.46 | 0.00 | 85 | 1016.3 |
| 20260905171700 | 13 | 254 | 3.2 | 19.3 | 0.00 | 0.46 | 0.00 | 85 | 1016.2 |
| 20260905171202 | 12 | 226 | 1.6 | 19.3 | 0.00 | 0.46 | 0.00 | 85 | 1016.1 |
| 20260905170706 | 12 | 347 | 1.6 | 12.9 | 0.00 | 0.46 | 0.00 | 85 | 1016.0 |
| 20260905170700 | 13 | 262 | 0.0 | 11.3 | 0.00 | 0.46 | 0.00 | 85 | 1016.1 |
| 20260905165700 | 12 | 49 | 1.6 | 19.3 | 0.00 | 0.48 | 0.00 | 85 | 1015.8 |
| 20260905165201 | 12 | 239 | 1.6 | 19.3 | 0.00 | 0.48 | 0.00 | 85 | 1015.8 |
| 20260905164658 | 12 | 221 | 1.6 | 11.3 | 0.00 | 0.48 | 0.00 | 85 | 1015.8 |
| 20260905164203 | 12 | 254 | 1.6 | 22.5 | 0.00 | 0.48 | 0.00 | 86 | 1015.9 |
| 20260905164159 | 12 | 241 | 1.6 | 22.5 | 0.00 | 0.48 | 0.00 | 85 | 1015.9 |
| 20260905163826 | 12 | 251 | 3.2 | 19.3 | 0.00 | 0.48 | 0.00 | 86 | 1015.7 |
| 20260905162702 | 12 | 224 | 0.0 | 9.7 | 0.00 | 0.48 | 0.00 | 85 | 1015.5 |
| 20260905162656 | 12 | 263 | 1.6 | 14.5 | 0.00 | 0.48 | 0.00 | 86 | 1015.6 |
| 20260905161659 | 12 | 249 | 1.6 | 16.1 | 0.00 | 0.51 | 0.00 | 85 | 1015.5 |
| 20260905161157 | 12 | 248 | 1.6 | 16.1 | 0.00 | 0.51 | 0.00 | 85 | 1015.6 |
| 20260905160658 | 12 | 224 | 1.6 | 12.9 | 0.00 | 0.51 | 0.00 | 85 | 1015.6 |
| 20260905160158 | 12 | 205 | 1.6 | 12.9 | 0.00 | 0.51 | 0.00 | 85 | 1015.6 |
| 20260905155704 | 12 | 245 | 1.6 | 16.1 | 0.00 | 0.51 | 0.00 | 85 | 1015.3 |
| 20260905155658 | 12 | 276 | 1.6 | 16.1 | 0.00 | 0.51 | 0.00 | 85 | 1015.4 |
| 20260905154656 | 12 | 226 | 1.6 | 17.7 | 0.00 | 0.53 | 0.00 | 85 | 1015.2 |
| 20260905154204 | 13 | 244 | 3.2 | 20.9 | 0.00 | 0.53 | 0.00 | 85 | 1015.0 |
| 20260905154154 | 13 | 220 | 1.6 | 17.7 | 0.00 | 0.53 | 0.00 | 85 | 1015.1 |
| 20260905153657 | 13 | 246 | 1.6 | 14.5 | 0.00 | 0.53 | 0.00 | 85 | 1015.0 |
| 20260905152701 | 13 | 289 | 3.2 | 17.7 | 0.00 | 0.53 | 0.00 | 84 | 1014.8 |
| 20260905152655 | 13 | 218 | 3.2 | 20.9 | 0.00 | 0.53 | 0.00 | 84 | 1014.9 |
| 20260905151657 | 13 | 104 | 3.2 | 17.7 | 0.00 | 0.53 | 0.00 | 85 | 1014.8 |
| 20260905151155 | 13 | 289 | 1.6 | 17.7 | 0.00 | 0.53 | 0.00 | 85 | 1014.6 |
| 20260905150654 | 13 | 256 | 1.6 | 12.9 | 0.00 | 0.53 | 0.00 | 85 | 1014.5 |
| 20260905150154 | 13 | 10 | 1.6 | 11.3 | 0.00 | 0.53 | 0.00 | 85 | 1014.3 |
| 20260905145656 | 13 | 317 | 1.6 | 16.1 | 0.00 | 0.53 | 0.00 | 85 | 1014.1 |
| 20260905145153 | 13 | 193 | 1.6 | 16.1 | 0.00 | 0.53 | 0.00 | 85 | 1014.1 |
| 20260905144653 | 12 | 269 | 1.6 | 12.9 | 0.00 | 0.53 | 0.00 | 85 | 1013.8 |
| 20260905144159 | 13 | 258 | 1.6 | 12.9 | 0.00 | 0.53 | 0.00 | 85 | 1013.6 |
| 20260905144153 | 13 | 239 | 1.6 | 12.9 | 0.00 | 0.53 | 0.00 | 85 | 1013.7 |
| 20260905143152 | 12 | 256 | 1.6 | 16.1 | 0.00 | 0.53 | 0.00 | 85 | 1013.7 |
| 20260905142658 | 12 | 219 | 1.6 | 12.9 | 0.00 | 0.53 | 0.00 | 85 | 1013.4 |
| 20260905142653 | 12 | 227 | 1.6 | 16.1 | 0.00 | 0.53 | 0.00 | 85 | 1013.6 |
| 20260905141654 | 12 | 241 | 1.6 | 12.9 | 0.00 | 0.53 | 0.00 | 85 | 1013.4 |
| 20260905141154 | 12 | 208 | 1.6 | 6.4 | 0.00 | 0.56 | 0.00 | 85 | 1013.3 |
| 20260905140652 | 12 | 269 | 1.6 | 9.7 | 0.00 | 0.56 | 0.00 | 85 | 1013.2 |
| 20260905140154 | 12 | 226 | 1.6 | 9.7 | 0.00 | 0.61 | 0.00 | 85 | 1013.1 |
| 20260905140149 | 12 | 319 | 1.6 | 17.7 | 0.00 | 0.66 | 0.66 | 85 | 1013.1 |
| 20260905135149 | 12 | 276 | 3.2 | 19.3 | 0.00 | 0.66 | 0.66 | 85 | 1013.0 |
| 20260905134653 | 12 | 320 | 3.2 | 20.9 | 0.00 | 0.66 | 0.66 | 85 | 1012.9 |
| 20260905134649 | 12 | 301 | 1.6 | 19.3 | 0.00 | 0.66 | 0.66 | 85 | 1012.9 |
| 20260905133648 | 12 | 283 | 3.2 | 20.9 | 0.00 | 0.66 | 0.66 | 85 | 1012.8 |
| 20260905133147 | 12 | 308 | 1.6 | 17.7 | 0.00 | 0.66 | 0.66 | 85 | 1012.6 |
| 20260905132653 | 12 | 314 | 1.6 | 14.5 | 0.00 | 0.66 | 0.66 | 84 | 1012.6 |
| 20260905132648 | 12 | 283 | 1.6 | 14.5 | 0.00 | 0.66 | 0.66 | 84 | 1012.5 |
| 20260905131649 | 12 | 301 | 1.6 | 12.9 | 0.00 | 0.66 | 0.66 | 83 | 1012.5 |
| 20260905131148 | 12 | 332 | 3.2 | 16.1 | 0.00 | 0.66 | 0.66 | 83 | 1012.4 |
| 20260905130649 | 12 | 294 | 3.2 | 16.1 | 0.00 | 0.66 | 0.66 | 83 | 1012.3 |
| 20260905130148 | 12 | 303 | 3.2 | 14.5 | 0.00 | 0.66 | 0.66 | 82 | 1012.2 |
| 20260905125651 | 13 | 303 | 3.2 | 19.3 | 0.00 | 0.66 | 0.66 | 82 | 1012.2 |
| 20260905125148 | 13 | 287 | 4.8 | 22.5 | 0.00 | 0.66 | 0.66 | 81 | 1012.1 |
| 20260905124646 | 13 | 283 | 4.8 | 22.5 | 0.00 | 0.66 | 0.66 | 80 | 1012.0 |
| 20260905124146 | 12 | 293 | 4.8 | 19.3 | 0.00 | 0.66 | 0.66 | 79 | 1012.0 |
| 20260905123647 | 13 | 307 | 6.4 | 19.3 | 0.00 | 0.66 | 0.66 | 79 | 1011.7 |
| 20260905123147 | 13 | 307 | 6.4 | 20.9 | 0.00 | 0.66 | 0.66 | 78 | 1011.7 |
| 20260905122646 | 13 | 310 | 4.8 | 20.9 | 0.00 | 0.66 | 0.66 | 77 | 1011.7 |
| 20260905122153 | 13 | 299 | 6.4 | 17.7 | 0.00 | 0.66 | 0.66 | 77 | 1011.5 |
| 20260905122148 | 13 | 291 | 4.8 | 20.9 | 0.00 | 0.66 | 0.66 | 77 | 1011.5 |
| 20260905121146 | 13 | 294 | 6.4 | 17.7 | 0.00 | 0.69 | 0.66 | 77 | 1011.4 |
| 20260905120646 | 13 | 316 | 6.4 | 20.9 | 0.00 | 0.69 | 0.66 | 77 | 1011.3 |
| 20260905120146 | 13 | 316 | 6.4 | 20.9 | 0.00 | 0.69 | 0.66 | 77 | 1011.3 |
| 20260905115646 | 13 | 334 | 4.8 | 14.5 | 0.00 | 0.69 | 0.66 | 77 | 1011.2 |
| 20260905115317 | 13 | 334 | 6.4 | 20.9 | 0.00 | 0.71 | 0.66 | 78 | 1011.0 |
| 20260905115146 | 13 | 285 | 6.4 | 17.7 | 0.00 | 0.71 | 0.66 | 77 | 1011.2 |
| 20260905113647 | 13 | 304 | 4.8 | 20.9 | 0.00 | 0.71 | 0.66 | 78 | 1010.9 |
| 20260905113145 | 13 | 288 | 4.8 | 16.1 | 0.00 | 0.71 | 0.66 | 78 | 1011.0 |
| 20260905112644 | 13 | 298 | 4.8 | 22.5 | 0.00 | 0.71 | 0.66 | 78 | 1010.9 |
| 20260905112143 | 13 | 301 | 6.4 | 24.1 | 0.00 | 0.71 | 0.66 | 77 | 1010.7 |
| 20260905111645 | 13 | 290 | 6.4 | 24.1 | 0.00 | 0.71 | 0.66 | 76 | 1010.7 |
| 20260905111151 | 13 | 332 | 4.8 | 17.7 | 0.00 | 0.71 | 0.66 | 74 | 1010.6 |
| 20260905111145 | 13 | 332 | 6.4 | 20.9 | 0.00 | 0.71 | 0.66 | 75 | 1010.6 |
| 20260905110144 | 13 | 311 | 4.8 | 22.5 | 0.00 | 0.71 | 0.66 | 74 | 1010.6 |
| 20260905105645 | 13 | 302 | 6.4 | 22.5 | 0.00 | 0.71 | 0.66 | 74 | 1010.4 |
| 20260905105144 | 13 | 256 | 4.8 | 29.0 | 0.00 | 0.71 | 0.66 | 74 | 1010.3 |
| 20260905104645 | 13 | 310 | 4.8 | 29.0 | 0.00 | 0.71 | 0.66 | 74 | 1010.1 |
| 20260905104141 | 13 | 329 | 6.4 | 24.1 | 0.00 | 0.71 | 0.66 | 74 | 1010.0 |
| 20260905103643 | 13 | 305 | 8.0 | 24.1 | 0.00 | 0.71 | 0.66 | 74 | 1009.8 |
| 20260905103141 | 13 | 306 | 6.4 | 25.7 | 0.00 | 0.71 | 0.66 | 74 | 1009.8 |
| 20260905102649 | 13 | 358 | 4.8 | 22.5 | 0.00 | 0.71 | 0.66 | 74 | 1009.6 |
| 20260905102643 | 13 | 271 | 6.4 | 25.7 | 0.00 | 0.71 | 0.66 | 74 | 1009.6 |
| 20260905101641 | 13 | 271 | 4.8 | 22.5 | 0.00 | 0.71 | 0.66 | 74 | 1009.5 |
| 20260905101141 | 13 | 342 | 6.4 | 17.7 | 0.00 | 0.71 | 0.66 | 74 | 1009.5 |
| 20260905100645 | 13 | 293 | 8.0 | 20.9 | 0.00 | 0.71 | 0.66 | 73 | 1009.3 |
| 20260905100640 | 13 | 306 | 6.4 | 17.7 | 0.00 | 0.71 | 0.66 | 73 | 1009.4 |
| 20260905095640 | 13 | 316 | 9.7 | 20.9 | 0.00 | 0.71 | 0.66 | 73 | 1009.2 |
| 20260905095137 | 13 | 306 | 6.4 | 20.9 | 0.00 | 0.71 | 0.66 | 73 | 1009.1 |
| 20260905094640 | 13 | 324 | 6.4 | 27.4 | 0.00 | 0.71 | 0.66 | 74 | 1008.9 |
| 20260905094140 | 13 | 296 | 8.0 | 27.4 | 0.00 | 0.71 | 0.66 | 73 | 1008.7 |
| 20260905094136 | 13 | 318 | 6.4 | 24.1 | 0.00 | 0.71 | 0.66 | 73 | 1008.6 |
| 20260905093137 | 13 | 291 | 4.8 | 17.7 | 0.00 | 0.71 | 0.66 | 74 | 1008.6 |
| 20260905092636 | 13 | 312 | 6.4 | 22.5 | 0.00 | 0.71 | 0.66 | 74 | 1008.5 |
| 20260905092134 | 13 | 298 | 4.8 | 22.5 | 0.00 | 0.71 | 0.66 | 76 | 1008.6 |
| 20260905091635 | 13 | 310 | 4.8 | 22.5 | 0.00 | 0.71 | 0.66 | 77 | 1008.5 |
| 20260905091134 | 13 | 310 | 4.8 | 22.5 | 0.00 | 0.71 | 0.66 | 78 | 1008.3 |
| 20260905090634 | 13 | 295 | 6.4 | 19.3 | 0.00 | 0.71 | 0.66 | 78 | 1008.1 |
| 20260905090134 | 13 | 307 | 6.4 | 14.5 | 0.00 | 0.71 | 0.66 | 79 | 1008.0 |
| 20260905085633 | 13 | 303 | 6.4 | 16.1 | 0.00 | 0.71 | 0.66 | 80 | 1007.9 |
| 20260905085135 | 12 | 307 | 4.8 | 16.1 | 0.00 | 0.71 | 0.66 | 81 | 1007.9 |
| 20260905084640 | 12 | 295 | 0.0 | 6.4 | 0.00 | 0.71 | 0.66 | 82 | 1007.7 |
| 20260905084634 | 12 | 309 | 1.6 | 12.9 | 0.00 | 0.71 | 0.66 | 82 | 1007.9 |
| 20260905083633 | 12 | 291 | 0.0 | 11.3 | 0.00 | 0.71 | 0.66 | 82 | 1007.6 |
| 20260905083131 | 12 | 306 | 0.0 | 11.3 | 0.03 | 0.71 | 0.66 | 82 | 1007.4 |
| 20260905082633 | 12 | 339 | 1.6 | 11.3 | 0.03 | 0.71 | 0.66 | 82 | 1007.4 |
| 20260905082131 | 12 | 270 | 1.6 | 11.3 | 0.03 | 0.71 | 0.66 | 82 | 1007.2 |
| 20260905081629 | 12 | 313 | 1.6 | 12.9 | 0.03 | 0.71 | 0.66 | 82 | 1007.1 |
| 20260905081129 | 12 | 312 | 1.6 | 12.9 | 0.03 | 0.71 | 0.66 | 83 | 1006.9 |
| 20260905080630 | 12 | 297 | 1.6 | 11.3 | 0.03 | 0.71 | 0.66 | 83 | 1006.9 |
| 20260905080129 | 12 | 286 | 3.2 | 16.1 | 0.03 | 0.71 | 0.66 | 84 | 1006.9 |
| 20260905075630 | 12 | 292 | 4.8 | 16.1 | 0.03 | 0.71 | 0.66 | 84 | 1006.8 |
| 20260905075129 | 12 | 304 | 3.2 | 14.5 | 0.05 | 0.71 | 0.66 | 85 | 1006.7 |
| 20260905074636 | 12 | 314 | 6.4 | 20.9 | 0.15 | 0.71 | 0.66 | 85 | 1006.5 |
| 20260905074630 | 12 | 287 | 3.2 | 17.7 | 0.13 | 0.71 | 0.66 | 85 | 1006.6 |
| 20260905073635 | 12 | 290 | 3.2 | 17.7 | 0.15 | 0.71 | 0.64 | 86 | 1006.6 |
| 20260905073629 | 12 | 306 | 4.8 | 20.9 | 0.15 | 0.71 | 0.66 | 86 | 1006.6 |
| 20260905073255 | 13 | 263 | 1.6 | 24.1 | 0.15 | 0.71 | 0.64 | 87 | 1006.7 |
| 20260905072134 | 13 | 237 | 1.6 | 11.3 | 0.15 | 0.71 | 0.64 | 86 | 1006.4 |
| 20260905072130 | 13 | 339 | 1.6 | 24.1 | 0.15 | 0.71 | 0.64 | 87 | 1006.6 |
| 20260905071129 | 13 | 218 | 1.6 | 11.3 | 0.15 | 0.71 | 0.64 | 85 | 1006.1 |
| 20260905070635 | 13 | 241 | 4.8 | 24.1 | 0.15 | 0.71 | 0.64 | 82 | 1005.7 |
| 20260905070628 | 13 | 268 | 3.2 | 14.5 | 0.15 | 0.71 | 0.64 | 84 | 1005.9 |